This demonstration page uses our WeatherBlox Daily Observations layout. Learn more.

Left ArrowRight Arrow

41.12389, -100.76542

Hourly Observations for September 14, 2017

Temp ( °F °C ) Dew Point ( °F °C ) Humidity (%) Winds ( mph kmh ) Pressure ( in mb ) Visibility ( mi km ) Precip ( " mm )
12:53 am 00:53 Clear 66 18.9 56 13.3 70 70 SE 3 6 29.62 1003 10 16 0.00 0.00
1:53 am 01:53 Clear 63 17.2 56 13.3 78 78 VRB 3 6 29.62 1003 10 16 0.00 0.00
2:53 am 02:53 Clear 64 17.8 56 13.3 75 75 NW 7 11 29.62 1003 10 16 0.00 0.00
3:53 am 03:53 Clear 62 16.7 56 13.3 80 80 NW 7 11 29.61 1003 10 16 0.00 0.00
4:53 am 04:53 Clear 61 16.1 57 13.9 87 87 Calm 29.61 1003 10 16 0.00 0.00
5:53 am 05:53 Clear 57 13.9 54 12.2 90 90 Calm 29.63 1003 10 16 0.00 0.00
6:53 am 06:53 Clear 60 15.6 57 13.9 90 90 NW 5 7 29.65 1004 10 16 0.00 0.00
7:53 am 07:53 Sunny 58 14.4 55 12.8 90 90 WNW 3 6 29.68 1005 10 16 0.00 0.00
8:53 am 08:53 Sunny 65 18.3 58 14.4 78 78 NW 3 6 29.69 1005 10 16 0.00 0.00
9:53 am 09:53 Sunny 76 24.4 55 12.8 48 48 WNW 8 13 29.66 1005 10 16 0.00 0.00
10:53 am 10:53 Sunny 79 26.1 53 11.7 41 41 WNW 10 17 29.66 1005 10 16 0.00 0.00
11:53 am 11:53 Sunny 85 29.4 54 12.2 35 35 WNW 8 13 29.66 1004 10 16 0.00 0.00
12:53 pm 12:53 Sunny 90 32.2 52 11.1 27 27 W 7 11 29.65 1004 10 16 0.00 0.00
1:53 pm 13:53 Sunny 89 31.7 57 13.9 34 34 WSW 6 9 29.65 1004 10 16 0.00 0.00
2:53 pm 14:53 Sunny 92 33.3 51 10.6 25 25 SW 7 11 29.64 1004 10 16 0.00 0.00
3:53 pm 15:53 Sunny 93 33.9 51 10.6 24 24 W 5 7 29.62 1003 10 16 0.00 0.00
4:53 pm 16:53 Sunny 93 33.9 53 11.7 26 26 NW 8 13 29.62 1003 10 16 0.00 0.00
5:53 pm 17:53 Sunny 92 33.3 54 12.2 28 28 NW 7 11 29.62 1003 10 16 0.00 0.00
6:53 pm 18:53 Sunny 89 31.7 62 16.7 41 41 NW 3 6 29.62 1003 10 16 0.00 0.00
7:53 pm 19:53 Sunny 78 25.6 59 15 52 52 NNE 8 13 29.65 1004 10 16 0.00 0.00
8:53 pm 20:53 Clear 78 25.6 58 14.4 50 50 NE 13 20 29.65 1004 7 11 0.00 0.00
9:53 pm 21:53 Clear 74 23.3 58 14.4 57 57 NE 12 19 29.65 1004 7 11 0.00 0.00
10:53 pm 22:53 Clear 75 23.9 58 14.4 55 55 NE 16 26 29.62 1003 7 11 0.00 0.00
11:50 pm 23:50 Partly Cloudy with Nearby Thunderstorms 73 23 61 16 65 65 S 18 30 29.68 1005 9 14 0.00 0.00
11:53 pm 23:53 Partly Cloudy with Thunderstorms 75 23.9 60 15.6 60 60 S 20 31 29.71 1006 8 13 0.00 0.00

Powered by AerisWeather